www.pogodaiklimat.ru

Погода и климат >> Архив погоды >> Италия >> Казерта


ПОГОДА в Казерте

  • Прогноз погоды в Казерте
  • Монитор погоды в Казерте

АРХИВ ПОГОДЫ в Казерте

Время (UTC), дата Ветер
(напр.,м/с)
 
Видим.   Явления Облачность Т
(С)
Тd
(С)
f
(%)
Тe
(С)
Тes
(С)
Комфортность P
(гПа)
Po
(гПа)
Тmin
(С)
Tmax
(С)
R
(мм)
R24
(мм)
S
(см)
01 13.03 СВ 2 н/о н/о +5.0 -4.7 49 +4 +4 1021.6 1013.1
02 13.03 С 2 н/о н/о +5.3 -4.7 48 +4 +4 1021.0 1012.5
03 13.03 С 1 н/о н/о +4.0 -4.8 53 +4 +4 1021.1 1012.6
04 13.03 СВ 1 н/о н/о +2.8 -3.8 62 +2 +2 1020.8 1012.3
05 13.03 СВ 1 н/о н/о +3.3 -2.9 64 +2 +2 1020.3 1011.8
06 13.03 В 1 н/о н/о +3.1 -2.9 65 +3 +3 1020.2 1011.7 +2.6 1
07 13.03 СВ 1 н/о н/о +5.4 -0.7 65 +5 +5 1020.2 1011.8
08 13.03 штиль 0 н/о н/о +9.0 -1.5 48 +9 +9 1020.1 1011.8
09 13.03 ЮЗ 1 н/о н/о +11.3 -1.9 40 +12 +12 1019.9 1011.6
10 13.03 ЮВ 2 н/о н/о +12.8 -0.2 41 +12 +12 1019.3 1011.1
11 13.03 З 2 н/о н/о +14.0 -1.0 36 +14 +14 1018.8 1010.6
12 13.03 З 2 н/о н/о +14.4 +0.9 40 +14 +14 1017.7 1009.5
13 13.03 З 3 н/о н/о +15.2 -4.3 26 +15 +15 1016.7 1008.5
14 13.03 СЗ 3 н/о н/о +15.7 -0.2 34 +15 +15 1016.2 1008.1
15 13.03 З 3 н/о н/о +14.5 +3.2 47 +14 +14 1016.2 1008.0
16 13.03 З 3 н/о н/о +13.4 +5.7 60 +13 +13 1016.0 1007.8
17 13.03 З 2 н/о н/о +12.8 +7.0 68 +12 +12 1015.8 1007.6
18 13.03 З 4 н/о н/о +12.3 +8.7 79 +11 +11 1015.5 1007.3 +16.1
19 13.03 ЮЗ 2 н/о н/о +11.1 +9.3 89 +10 +10 1015.2 1007.0
20 13.03 ЮЗ 2 н/о н/о +11.0 +9.4 90 +10 +10 1014.9 1006.7
21 13.03 З 3 н/о н/о +10.8 +9.5 92 +9 +9 1014.8 1006.5
22 13.03 З 3 н/о н/о +10.6 +9.7 94 +8 +8 1014.6 1006.3
23 13.03 Ю 1 н/о н/о +10.1 +9.3 95 +9 +9 1014.0 1005.7
00 14.03 Ю 2 н/о н/о +10.2 +9.6 96 +9 +9 1013.2 1004.9 10
01 14.03 ЮВ 1 н/о н/о +8.2 +6.3 88 +7 +7 1013.0 1004.7
02 14.03 штиль 0 н/о н/о +8.2 +6.6 90 +7 +7 1012.2 1003.9
03 14.03 В 1 н/о н/о +8.0 +6.8 92 +8 +8 1011.3 1003.0
04 14.03 В 1 н/о н/о +7.9 +6.8 93 +7 +7 1010.4 1002.1
05 14.03 С 2 н/о н/о +8.1 +7.2 94 +6 +6 1010.5 1002.2
06 14.03 С 2 н/о н/о +7.4 +6.3 93 +6 +6 1010.9 1002.6 +7.4 14 203
07 14.03 В 1 н/о н/о +8.2 +8.2 100 +8 +8 1011.5 1003.2
08 14.03 В 1 н/о н/о +9.2 +7.1 87 +9 +9 1011.7 1003.4
09 14.03 В 2 н/о н/о +11.6 +4.3 61 +11 +11 1012.3 1004.1
10 14.03 СВ 1 н/о н/о +13.4 +4.5 55 +14 +14 1012.6 1004.4
11 14.03 ЮВ 1 н/о н/о +14.1 +4.0 51 +15 +15 1012.8 1004.7
12 14.03 СВ 2 н/о н/о +13.4 +3.4 51 +13 +13 1013.2 1005.0
13 14.03 СВ 2 н/о н/о +14.3 +3.6 49 +14 +14 1012.7 1004.6
14 14.03 СЗ 1 н/о н/о +14.0 +2.2 45 +15 +15 1013.1 1004.9
15 14.03 СВ 2 н/о н/о +15.2 +2.6 43 +15 +15 1013.2 1005.1
16 14.03 ЮВ 1 н/о н/о +14.3 +0.8 40 +16 +16 1013.5 1005.4
17 14.03 З 1 н/о н/о +13.6 +4.9 56 +14 +14 1013.7 1005.5
18 14.03 штиль 0 н/о н/о +11.4 +4.5 63 +11 +11 1013.9 1005.7 +15.8
19 14.03 ЮВ 1 н/о н/о +9.5 +3.6 67 +10 +10 1013.9 1005.6
20 14.03 ЮВ 1 н/о н/о +10.0 +3.7 65 +10 +10 1014.0 1005.7
21 14.03 Ю 1 н/о н/о +9.4 +3.9 68 +9 +9 1014.1 1005.8
22 14.03 ЮВ 1 н/о н/о +9.1 +5.0 75 +10 +10 1014.0 1005.7
23 14.03 ЮВ 1 н/о н/о +8.6 +5.5 81 +9 +9 1013.9 1005.6
00 15.03 В 1 н/о н/о +8.3 +5.5 83 +9 +9 1013.9 1005.6
01 15.03 СВ 1 н/о н/о +8.5 +5.9 84 +9 +9 1013.7 1005.4
02 15.03 СВ 1 н/о н/о +7.9 +5.5 85 +8 +8 1013.1 1004.8
03 15.03 СВ 1 н/о н/о +6.8 +4.4 85 +7 +7 1012.7 1004.3
04 15.03 СВ 1 н/о н/о +6.0 +4.0 87 +6 +6 1012.8 1004.4
05 15.03 СВ 1 н/о н/о +5.6 +3.7 88 +6 +6 1013.0 1004.6
06 15.03 СВ 1 н/о н/о +5.7 +4.6 93 +6 +6 1013.6 1005.2 +5.5 401
07 15.03 СВ 1 н/о н/о +7.9 +7.9 100 +8 +8 1014.6 1006.3
08 15.03 Ю 1 н/о н/о +11.2 +8.6 84 +12 +12 1014.9 1006.7
09 15.03 З 2 н/о н/о +13.2 +7.1 66 +13 +13 1015.3 1007.1
10 15.03 ЮВ 2 н/о н/о +14.2 +5.7 57 +14 +14 1015.5 1007.3
11 15.03 З 2 н/о н/о +15.7 +3.7 45 +16 +16 1015.6 1007.5
12 15.03 З 2 н/о н/о +16.4 +4.3 45 +17 +17 1015.5 1007.4
13 15.03 З 3 н/о н/о +17.7 +6.8 49 +18 +18 1015.4 1007.3
14 15.03 З 3 н/о н/о +16.2 +6.5 53 +16 +16 1015.6 1007.5
15 15.03 З 3 н/о н/о +16.1 +7.5 57 +16 +16 1016.0 1007.9
16 15.03 З 3 н/о н/о +15.4 +6.6 56 +15 +15 1016.3 1008.2
17 15.03 С 2 н/о н/о +14.1 +5.4 56 +14 +14 1016.8 1008.6
18 15.03 ЮЗ 1 н/о н/о +12.6 +5.2 61 +14 +14 1017.6 1009.4 +17.9
19 15.03 штиль 0 н/о н/о +10.9 +5.2 68 +10 +10 1018.4 1010.1
20 15.03 СВ 1 н/о н/о +9.8 +5.5 75 +10 +10 1018.6 1010.3
21 15.03 СВ 1 н/о н/о +8.9 +5.4 79 +9 +9 1019.0 1010.7
22 15.03 ЮВ 1 н/о н/о +8.6 +5.3 80 +8 +8 1019.5 1011.1
23 15.03 ЮВ 1 н/о н/о +8.8 +5.5 80 +9 +9 1019.5 1011.1
00 16.03 Ю 1 н/о н/о +9.3 +6.9 85 +9 +9 1019.8 1011.5
01 16.03 Ю 1 н/о н/о +10.5 +7.3 81 +10 +10 1019.9 1011.6
02 16.03 Ю 1 н/о н/о +10.2 +5.9 75 +10 +10 1019.9 1011.6
03 16.03 С 1 н/о н/о +10.8 +6.9 77 +11 +11 1020.0 1011.7
04 16.03 ЮВ 1 н/о н/о +11.1 +8.5 84 +12 +12 1020.3 1012.0
05 16.03 штиль 0 н/о н/о +10.8 +8.7 87 +10 +10 1020.5 1012.2
06 16.03 штиль 0 н/о н/о +11.0 +9.2 89 +10 +10 1020.8 1012.5 +8.4 0
07 16.03 Ю 1 н/о н/о +11.7 +9.9 89 +12 +12 1021.0 1012.7
08 16.03 Ю 1 н/о н/о +12.4 +9.9 85 +12 +12 1021.8 1013.5
09 16.03 Ю 1 н/о н/о +13.1 +10.2 83 +13 +13 1021.9 1013.7
10 16.03 Ю 1 н/о н/о +13.9 +10.7 81 +15 +15 1022.1 1013.9
11 16.03 З 1 н/о н/о +14.6 +11.0 79 +16 +16 1022.0 1013.8
12 16.03 СЗ 1 н/о н/о +15.4 +10.5 73 +16 +16 1021.5 1013.3
13 16.03 З 1 н/о н/о +15.8 +10.1 69 +17 +17 1020.7 1012.5
14 16.03 СЗ 2 н/о н/о +15.5 +9.8 69 +15 +15 1020.3 1012.1
15 16.03 З 2 н/о н/о +15.6 +9.4 67 +16 +16 1020.3 1012.1
16 16.03 З 2 н/о н/о +16.0 +10.0 68 +16 +16 1020.2 1012.0
17 16.03 З 2 н/о н/о +15.1 +10.3 73 +15 +15 1020.4 1012.2
18 16.03 З 1 н/о н/о +13.8 +9.8 77 +15 +15 1020.5 1012.3 +16.1
19 16.03 СЗ 1 н/о н/о +13.1 +10.2 83 +14 +14 1021.0 1012.8
20 16.03 З 1 н/о н/о +12.9 +10.6 86 +13 +13 1021.3 1013.1
21 16.03 З 1 н/о н/о +12.8 +11.0 89 +14 +14 1021.8 1013.5
22 16.03 Ю 1 н/о н/о +12.5 +10.7 89 +13 +13 1021.8 1013.5
23 16.03 Ю 1 н/о н/о +12.3 +10.5 89 +13 +13 1021.4 1013.1
00 17.03 штиль 0 н/о н/о +11.1 +8.8 86 +10 +10 1021.2 1012.9
01 17.03 штиль 0 н/о н/о +10.1 +8.0 87 +9 +9 1020.7 1012.4
02 17.03 штиль 0 н/о н/о +10.2 +8.6 90 +9 +9 1020.2 1011.9
03 17.03 штиль 0 н/о н/о +10.6 +9.7 94 +10 +10 1019.9 1011.6
04 17.03 штиль 0 н/о н/о +9.7 +8.6 93 +9 +9 1019.7 1011.4
05 17.03 В 1 н/о н/о +9.0 +7.6 91 +9 +9 1019.8 1011.5
06 17.03 СВ 1 н/о н/о +9.5 +9.5 100 +10 +10 1019.8 1011.5 +8.8 301
07 17.03 СВ 1 н/о н/о +10.9 +10.9 100 +11 +11 1020.3 1012.0
08 17.03 СЗ 1 н/о н/о +12.6 +9.6 82 +13 +13 1020.5 1012.3
09 17.03 ЮЗ 1 н/о н/о +14.8 +9.8 72 +15 +15 1020.5 1012.3
10 17.03 З 2 н/о н/о +16.2 +9.6 65 +17 +17 1020.1 1012.0
11 17.03 З 2 н/о н/о +17.1 +9.5 61 +18 +18 1019.5 1011.4
12 17.03 ЮЗ 2 н/о н/о +18.4 +9.7 57 +19 +19 1018.7 1010.6
13 17.03 З 2 н/о н/о +17.4 +10.0 62 +18 +18 1017.9 1009.8
14 17.03 З 3 н/о н/о +17.1 +9.9 63 +17 +17 1017.5 1009.4
15 17.03 З 3 н/о н/о +16.8 +9.9 64 +17 +17 1017.1 1009.0
16 17.03 СЗ 2 н/о н/о +15.9 +9.5 66 +16 +16 1017.1 1009.0
17 17.03 СЗ 2 н/о н/о +14.8 +9.1 69 +15 +15 1017.1 1008.9
18 17.03 З 2 н/о н/о +14.1 +9.5 74 +14 +14 1017.2 1009.0 +18.9
19 17.03 СЗ 1 н/о н/о +13.4 +9.2 76 +14 +14 1017.0 1008.8
20 17.03 С 1 н/о н/о +13.2 +9.2 77 +14 +14 1016.9 1008.7
21 17.03 штиль 0 н/о н/о +12.6 +9.0 79 +12 +12 1016.7 1008.5
22 17.03 штиль 0 н/о н/о +12.4 +8.8 79 +12 +12 1016.7 1008.5
23 17.03 штиль 0 н/о н/о +12.5 +9.3 81 +12 +12 1016.5 1008.3
00 18.03 штиль 0 н/о н/о +12.4 +9.2 81 +12 +12 1016.5 1008.3
01 18.03 штиль 0 н/о н/о +12.2 +9.0 81 +12 +12 1016.2 1008.0
02 18.03 В 1 н/о н/о +11.7 +8.7 82 +12 +12 1015.4 1007.2
03 18.03 С 1 н/о н/о +11.1 +8.5 84 +12 +12 1015.1 1006.8
04 18.03 штиль 0 н/о н/о +11.1 +8.8 86 +10 +10 1015.6 1007.3
05 18.03 штиль 0 н/о н/о +11.0 +8.7 86 +10 +10 1015.9 1007.6
06 18.03 штиль 0 н/о н/о +11.3 +9.2 87 +11 +11 1015.9 1007.7 +10.9 0
07 18.03 З 1 н/о н/о +12.0 +9.9 87 +13 +13 1016.2 1008.0
08 18.03 ЮЗ 2 н/о н/о +13.2 +8.8 75 +13 +13 1016.4 1008.2
09 18.03 ЮЗ 2 н/о н/о +14.2 +8.5 69 +14 +14 1016.6 1008.4
10 18.03 ЮЗ 2 н/о н/о +15.5 +8.2 62 +15 +15 1016.5 1008.4
11 18.03 ЮЗ 3 н/о н/о +16.9 +8.8 59 +17 +17 1016.3 1008.2
12 18.03 ЮЗ 2 н/о н/о +17.4 +9.0 58 +18 +18 1015.9 1007.8
13 18.03 З 2 н/о н/о +17.9 +8.1 53 +18 +18 1015.2 1007.1
14 18.03 З 5 н/о н/о +16.4 +8.8 61 +16 +16 1015.6 1007.5
15 18.03 З 4 н/о н/о +16.4 +8.3 59 +16 +16 1015.7 1007.6
16 18.03 СЗ 2 н/о н/о +14.9 +7.9 63 +15 +15 1015.8 1007.6
17 18.03 СЗ 2 н/о н/о +14.3 +8.4 68 +14 +14 1016.1 1007.9
18 18.03 З 1 н/о н/о +13.6 +8.4 71 +15 +15 1016.3 1008.1 +18.6 0.2
19 18.03 С 1 н/о н/о +12.5 +8.1 75 +13 +13 1016.6 1008.4
20 18.03 С 1 н/о н/о +12.7 +9.3 80 +13 +13 1016.8 1008.6
21 18.03 штиль 0 н/о н/о +12.4 +9.2 81 +12 +12 1017.1 1008.9
22 18.03 З 1 н/о н/о +12.6 +9.8 83 +13 +13 1017.3 1009.1
23 18.03 З 1 н/о н/о +11.7 +7.2 74 +13 +13 1017.4 1009.1
00 19.03 Ю 1 н/о н/о +10.8 +4.2 64 +12 +12 1017.4 1009.1
01 19.03 штиль 0 н/о н/о +9.7 +4.4 70 +9 +9 1017.2 1008.9
02 19.03 штиль 0 н/о н/о +8.4 +4.0 74 +8 +8 1016.8 1008.5
03 19.03 СВ 1 н/о н/о +7.3 +4.0 80 +8 +8 1016.9 1008.5
04 19.03 СВ 1 н/о н/о +6.9 +4.5 85 +7 +7 1017.1 1008.7
05 19.03 СВ 1 н/о н/о +6.7 +4.5 86 +6 +6 1017.4 1009.0
06 19.03 СВ 1 н/о н/о +7.0 +4.4 84 +6 +6 1017.4 1009.0 +6.6 302
07 19.03 СВ 1 н/о н/о +9.2 +6.3 82 +10 +10 1017.5 1009.2
08 19.03 С 2 н/о н/о +11.4 +6.1 70 +10 +10 1017.7 1009.4
09 19.03 С 2 н/о н/о +13.3 +6.1 62 +13 +13 1017.7 1009.5
10 19.03 С 2 н/о н/о +15.2 +4.8 50 +15 +15 1017.4 1009.3
11 19.03 С 2 н/о н/о +16.3 +3.9 44 +17 +17 1017.4 1009.3
12 19.03 Ю 1 н/о н/о +16.7 +2.6 39 +18 +18 1017.2 1009.1
13 19.03 СВ 1 н/о н/о +17.4 +3.2 39 +18 +18 1016.8 1008.7
14 19.03 С 1 н/о н/о +16.9 +2.8 39 +18 +18 1016.7 1008.6
15 19.03 СЗ 3 н/о н/о +15.6 +4.8 49 +15 +15 1016.6 1008.5
16 19.03 СЗ 1 н/о н/о +15.3 +6.5 56 +16 +16 1016.8 1008.7
17 19.03 В 3 н/о н/о +14.6 +6.4 58 +14 +14 1017.7 1009.5
18 19.03 В 3 н/о н/о +13.5 +6.1 61 +13 +13 1018.6 1010.4 +17.6
19 19.03 В 3 н/о н/о +12.7 +5.8 63 +12 +12 1019.4 1011.2
20 19.03 В 2 н/о н/о +12.0 +5.3 64 +12 +12 1020.2 1011.9
21 19.03 В 3 н/о н/о +11.5 +4.9 64 +10 +10 1020.2 1011.9
22 19.03 В 4 н/о н/о +11.2 +4.6 64 +9 +9 1020.6 1012.3
23 19.03 Ю 3 н/о н/о +11.4 +4.5 63 +10 +10 1020.7 1012.4
00 20.03 З 4 н/о н/о +11.4 +4.3 62 +10 +10 1020.9 1012.6
01 20.03 В 4 н/о н/о +11.2 +4.3 62 +9 +9 1021.1 1012.8
02 20.03 В 3 н/о н/о +11.1 +4.0 62 +9 +9 1021.0 1012.7

 

Местоположение метеостанции Казерта (Италия): широта 41.07 долгота 14.32 высота над уровнем моря 61 м.

В архиве по умолчанию представлена погода в Казерте за последнюю неделю. Архивные данные за месяц целиком и за предыдущие месяцы, начиная с января 2011 года, Вы можете получить, выбрав интересующий диапазон дат из раскрывающегося списка и нажав кнопку "Ввод!".


*Определитесь, кто Вы:
робот инопланетянин человек

Внимание! Время в таблицах - всемирное. Для получения местного времени необходимо прибавить поправку, которая равна 1 ч.

Смотрите также архив погоды в соседних городах и на ближайших метеорологических станциях:

Погода в Граццанизе (Италия) (21 км)
Погода в Неаполе (Италия) (25 км)
Погода на Капри (Италия) (59 км)
Погода в Кампобассо (Италия) (62 км)
Погода в Тревико (Италия) (76 км)
Погода в Торре-Олеволе (Италия) (102 км)
Погода во Фрозиноне (Италия) (106 км)
Погода на Понце (Италия) (116 км)
Погода в Фучино (Италия) (117 км)
Погода в Термоли (Италия) (118 км)

Пояснения к столбцам:

Ветер - указаны скорость ветра в м/с - средняя за 10 мин, порывы в срок и между сроками (в фигурных скобках) и направление, откуда дует ветер: С - северный, СВ - северо-восточный, В - восточный, ЮВ - юго-восточный, Ю - южный, ЮЗ - юго-западный, З - западный, СЗ - северо-западный.
Видимость - горизонтальная дальность видимости в метрах или километрах. При видимости от 1 до 10 км при отсутствии осадков обычно наблюдается дымка, при ухудшении видимости до 1 км и менее - туман. В сухую погоду видимость может ухудшаться дымом, пылью или мглою.
Явления - указаны атмосферные явления, наблюдавшиеся в срок или в последний час перед сроком; фигурными скобками обозначены явления, наблюдавшиеся между сроками (за 1-3 часа до срока); квадратными скобками обозначены град или гололедные отложения с указанием их диаметра в мм.
Облачность - указаны через наклонную черту общая и нижняя облачность в баллах и высота нижней границы облаков в метрах; квадратными скобками обозначены формы облаков: Ci - перистые, Cs - перисто-слоистые, Cc - перисто-кучевые, Ac - высококучевые, As - высокослоистые, Sc - слоисто-кучевые, Ns - слоисто-дождевые, Cu - кучевые, Cb - кучево-дождевые. Подробнее классификацию облаков см. в Атласе облаков (PDF).
T - Температура воздуха - температура, измеренная на высоте 2 м над землей.
Td - Температура точки росы - температура, при понижении до которой содержащийся в воздухе водяной пар достигнет насыщения.
f - Относительная влажность воздуха - влажноcть воздуха, измеренная на высоте 2 м над землей.
Te - Эффективная температура - температура, которую ощущает одетый по сезону человек в тени. Характеристика душности погоды. При расчете учитывается влияние влажности воздуха и скорости ветра на теплоощущения человека.
Tes - Эффективная температура на солнце - температура, которую ощущает человек, с поправкой на солнечный нагрев. Характеристика знойности погоды. Зависит от высоты солнца над горизонтом, облачности и скорости ветра. Ночью, в пасмурную погоду, а также при ветре 12 м/с и более поправка равна нулю.
P - Атмосферное давление - приведенное к уровню моря атмосферное давление.
Po - Атмосферное давление - измеренное на уровне метеостанции атмосферное давление.
Tmin - Минимальная температура - минимум температуры воздуха на высоте 2 м над землей.
Tmax - Максимальная температура - максимум температуры воздуха на высоте 2 м над землей.
R - Количество осадков - Количество выпавших осадков за период времени, мм. При наведении курсора мыши на число - период времени, за который выпало указанное количество осадков.
R24 - Количество осадков - Количество выпавших осадков за 24 часа, мм.
S - Снежный покров - Высота снежного покрова, см. При наведении курсора мыши на число - состояние снежного покрова и степень покрытия местности в баллах.